Regional Weather Roundup
Issued by NWS

Home | Current Version | Previous Version | Graphics & Text | Print | Product List | Glossary On
Versions: 1 2 3 4 5 6 7 8 9 10 11 12 13 14 15 16 17 18 19 20 21 22 23 24 25 26 27 28 29 30 31 32 33 34 35 36 37 38 39 40 41 42 43 44 45 46 47 48 49 50
000
ASUS43 KOAX 230310
RWRNE

WEATHER ROUNDUP FOR NEBRASKA
NATIONAL WEATHER SERVICE OMAHA NE
1000 PM CDT WED OCT 22 2014

NOTES: SATELLITE DATA IS BEING USED TO AUGMENT CLOUD COVER ABOVE
       12000 FEET.
       "FAIR" INDICATES FEW OR NO CLOUDS BELOW 12,000 FEET WITH NO
       SIGNIFICANT WEATHER AND/OR OBSTRUCTIONS TO VISIBILITY.

  * THESE STATIONS DO NOT REPORT WEATHER SUCH AS RAIN...SNOW OR FOG.

NEZ001>004-019>022-054>056-230400-
NEBRASKA PANHANDLE

CITY           SKY/WX    TMP DP  RH WIND       PRES   REMARKS
SCOTTSBLUFF    CLEAR     44  30  57 SE7       30.09R
ALLIANCE       CLEAR     42  31  64 CALM      30.09R
CHADRON        CLEAR     39  32  76 W7        30.05R WCI  34
KIMBALL        PTCLDY    48  35  59 S3        30.12S
SIDNEY         PTCLDY    49  37  63 S7        30.12R
$$

NEZ057>060-069>072-079>082-230400-
SOUTHWEST NEBRASKA

CITY           SKY/WX    TMP DP  RH WIND       PRES   REMARKS
NORTH PLATTE   PTCLDY    48  46  93 NE3       30.08R
IMPERIAL       CLEAR     51  35  54 NW3       30.09R
LEXINGTON      PTCLDY    51  50  95 CALM      30.06R FOG
MCCOOK         CLEAR     53  48  83 CALM      30.07R
OGALLALA       MOCLDY    48  37  65 CALM      30.09R
$$

NEZ005>010-023>029-035>040-094-230400-
NORTH CENTRAL NEBRASKA

CITY           SKY/WX    TMP DP  RH WIND       PRES   REMARKS
VALENTINE      CLEAR     44  38  79 S3        30.05R
AINSWORTH      PTCLDY    43  41  91 S6        30.05S
BROKEN BOW     MOCLDY    50  48  93 NW3       30.06R
O`NEILL        FOG       48  48 100 SW3       30.05S VSB 1/2
ORD            FOG       46  45  96 CALM      30.05R VSB 1/4
THEDFORD       CLEAR     46  43  86 CALM      30.08S
$$

NEZ041-046>049-061>064-073>077-083>087-230400-
SOUTH CENTRAL NEBRASKA

CITY           SKY/WX    TMP DP  RH WIND       PRES   REMARKS
GRAND ISLAND   FOG       56  55  97 CALM      30.05R VSB 1/4
AURORA         CLOUDY    61  60  97 S5        30.03S
HASTINGS       MOCLDY    58  56  93 NW5       30.04R FOG
HEBRON         CLOUDY    62  58  86 S9        30.05S
HOLDREGE       FOG       47  46  95 CALM      30.05R VSB 1/4
KEARNEY *      CLOUDY    52  48  87 CALM      30.06R VSB<1/4
YORK           CLOUDY    61  59  94 S10       30.03S
$$

NEZ011>018-030>034-042>045-230400-
NORTHEAST NEBRASKA

CITY           SKY/WX    TMP DP  RH WIND       PRES   REMARKS
NORFOLK        CLOUDY    59  58  96 NW5       30.03S
ALBION         CLOUDY    56  55  94 N5        30.05R
BLAIR          CLOUDY    63  60  90 S10       30.04S
COLUMBUS *     CLOUDY    63  57  82 SW6       30.04S
FREMONT        CLOUDY    63  60  91 SE6       30.03F
TEKAMAH        CLOUDY    62  59  90 S5        30.03S
WAYNE          CLOUDY    59  57  96 CALM      30.04S
$$

NEZ050>053-065>068-078-088>093-230400-
SOUTHEAST NEBRASKA

CITY           SKY/WX    TMP DP  RH WIND       PRES   REMARKS
LINCOLN        LGT RAIN  62  59  90 S14       30.05F
OMAHA EPPLEY   RAIN      63  60  90 SE13G21   30.04F FOG
BEATRICE       RAIN      61  59  93 W5        30.07R
FALLS CITY     LGT RAIN  64  56  75 SE9       30.06R
NEBRASKA CITY  RAIN      62  61  96 W6        30.09R
PLATTSMOUTH    RAIN      62  60  94 CALM      30.08S
$$

NEZ044-045-051>053-067-230400-
OMAHA AREA

CITY           SKY/WX    TMP DP  RH WIND       PRES   REMARKS
OMAHA EPPLEY   RAIN      63  60  90 SE13G21   30.04F FOG
BLAIR          CLOUDY    63  60  90 S10       30.04S
FREMONT        CLOUDY    63  60  91 SE6       30.03F
MILLARD        RAIN      64  60  87 S9        30.04F
OFFUTT AFB     HVY RAIN  63  63 100 E3        30.06F FOG
PLATTSMOUTH    RAIN      62  60  94 CALM      30.08S
WAHOO          CLOUDY    62  59  90 S8        30.04S
$$



USA.gov is the U.S. government's official web portal to all federal, state and local government web resources and services.